{"data":{"norad_id":63807,"intl_designator":"2025-092D","name":"STARLINK-34109","alt_names":[],"object_type":"PAYLOAD","status":"ACTIVE","operator":null,"country":"US","launch_date":"2025-05-04","launch_site_code":"AFETR","launch_vehicle":null,"mission":null,"orbit_class":"UNKNOWN","rcs_meters":null,"size_class":null,"mass_kg":null,"dimensions":null,"purposes":["comms"],"wikipedia_slug":null,"has_3d_model":false,"image_url":null,"decayed_at":null,"tle_current":{"epoch":"2026-09-19T23:52:26.583168Z","epoch_age_seconds":193446,"freshness":"STALE","line1":"1 63807U 25092D   26262.99475212  .00010043  00000+0  37369-3 0  9997","line2":"2 63807  42.9977 154.9873 0000755 248.8090 111.2681 15.27603522 78333","mean_motion":15.27603522,"eccentricity":7.55e-5,"inclination_deg":42.9977,"raan_deg":154.9873,"arg_perigee_deg":248.809,"mean_anomaly_deg":111.2681,"bstar":0.00037369,"rev_number":7833,"period_min":94.265297196664,"perigee_km":482.46064938083,"apogee_km":483.49667784604,"semimajor_km":6861.1156636134,"source":"CELESTRAK","updated_at":"2026-09-21T09:00:35.104505Z"}}}